Location: Unspecified
(0.0000°N, 0.0000°E)
Time: 00:04:06
(UTC+00:00)

KAITUO 1B - Pass Details

Date: 22 July 2019
Orbit: 497 x 516 km, 97.4° (Epoch: 17 August)

Event Time Altitude Azimuth Distance (km) Brightness Sun altitude
Rises 05:36:41 0° 23° (NNE) 2,597 ? -7.0°
Reaches altitude 10° 05:38:50 10° 31° (NNE) 1,719 ? -6.5°
Maximum altitude 05:42:20 40° 101° (ESE) 762 ? -5.7°
Drops below altitude 10° 05:45:52 10° 172° (S) 1,736 ? -4.8°
Sets 05:48:03 0° 179° (S) 2,628 ? -4.3°
